sat.trackr.live / text

‹ back to catalog

ICEYE-X50

NORAD 63255 · 2025-052AX

PAYLOAD ACTIVE UNKNOWN

§ Identity

Operator
Country
FIN
Launch date
2025-03-15
Launch site
AFWTR
Launch vehicle
Mass (kg)
RCS (m²)

External: N2YO · Heavens-Above · Gunter

§ Orbital elements

Epoch: 2026-05-25T03:17:33.366336Z

Period
96.31 min
Inclination
97.6920°
Eccentricity
0.0000748
Mean motion
14.95191966 rev/d
Perigee alt
581.3 km
Apogee alt
582.3 km
Semi-major
6,959.9 km
B*
9.9932e-5
RAAN
37.4742°
Arg perigee
350.1298°
Mean anomaly
9.9908°
Rev number
6,520

§ Raw data

ICEYE-X501 63255U 25052AX  26145.13719174  .00001041  00000+0  99932-4 0  99972 63255  97.6920  37.4742 0000748 350.1298   9.9908 14.95191966 65209

JSON: /api/v1/satellites/63255 · /tle

For live sub-satellite position, see the globe view (requires WebGL).

§ Visibility from observer

Set your observer location to see the next 7 days of passes ≥ 10°. The values pass through the URL so the page stays shareable.

No JS? Fill the form by hand. The geolocation button needs JavaScript.

§ Radio — SatNOGS DB

ModeDescriptionDownlinkUplink
FM S-band telemetry 2.264 GHz

1 transmitter · refreshed weekly from db.satnogs.org